| time (UTC) | temp F | wind direction | speed MPH | gust MPH | rain 1hr in | rain 24hr in | rain mn in | humidity % | barometer mb |
| 20260505075404 | 42 | 5 | 0.0 | 0.0 | 0.00 | 0.00 | 0.00 | 62 | 1012.1 |
| 20260505074904 | 42 | 5 | 0.0 | 0.0 | 0.00 | 0.00 | 0.00 | 61 | 1012.1 |
| 20260505074404 | 42 | 5 | 0.0 | 0.0 | 0.00 | 0.00 | 0.00 | 60 | 1012.1 |
| 20260505073404 | 43 | 5 | 0.0 | 0.0 | 0.00 | 0.00 | 0.00 | 61 | 1012.0 |
| 20260505072904 | 43 | 5 | 0.0 | 0.0 | 0.00 | 0.00 | 0.00 | 61 | 1012.0 |
| 20260505072404 | 43 | 5 | 0.0 | 0.0 | 0.00 | 0.00 | 0.00 | 60 | 1012.0 |
| 20260505071904 | 43 | 5 | 0.0 | 0.0 | 0.00 | 0.00 | 0.00 | 59 | 1012.0 |
| 20260505071404 | 43 | 5 | 0.0 | 0.0 | 0.00 | 0.00 | 0.00 | 59 | 1012.1 |
| 20260505070404 | 44 | 5 | 0.0 | 0.0 | 0.00 | 0.00 | 0.00 | 58 | 1012.1 |
| 20260505065904 | 44 | 5 | 0.0 | 0.0 | 0.00 | 0.00 | 0.00 | 58 | 1012.0 |
| 20260505065404 | 44 | 5 | 0.0 | 0.0 | 0.00 | 0.00 | 0.00 | 58 | 1012.0 |
| 20260505064904 | 44 | 5 | 0.0 | 0.0 | 0.00 | 0.00 | 0.00 | 58 | 1012.0 |
| 20260505064404 | 44 | 5 | 0.0 | 0.0 | 0.00 | 0.00 | 0.00 | 58 | 1012.0 |
| 20260505062904 | 44 | 5 | 0.0 | 0.0 | 0.00 | 0.00 | 0.00 | 58 | 1012.0 |
| 20260505062404 | 44 | 5 | 0.0 | 0.0 | 0.00 | 0.00 | 0.00 | 57 | 1012.0 |
| 20260505061904 | 44 | 5 | 0.0 | 0.0 | 0.00 | 0.00 | 0.00 | 57 | 1012.0 |
| 20260505061404 | 44 | 5 | 0.0 | 0.0 | 0.00 | 0.00 | 0.00 | 58 | 1011.9 |
| 20260505060404 | 45 | 5 | 0.0 | 0.0 | 0.00 | 0.00 | 0.00 | 57 | 1012.0 |
| 20260505055904 | 44 | 5 | 0.0 | 0.0 | 0.00 | 0.00 | 0.00 | 56 | 1012.0 |
| 20260505055405 | 45 | 5 | 0.0 | 0.0 | 0.00 | 0.00 | 0.00 | 56 | 1012.0 |
| 20260505054904 | 45 | 5 | 0.0 | 0.0 | 0.00 | 0.00 | 0.00 | 55 | 1012.0 |
| 20260505054403 | 45 | 5 | 0.0 | 0.0 | 0.00 | 0.00 | 0.00 | 54 | 1011.9 |
| 20260505053903 | 45 | 5 | 0.0 | 0.0 | 0.00 | 0.00 | 0.00 | 53 | 1011.8 |
| 20260505052404 | 46 | 5 | 0.0 | 0.0 | 0.00 | 0.00 | 0.00 | 52 | 1011.6 |
| 20260505051904 | 46 | 5 | 0.0 | 0.0 | 0.00 | 0.00 | 0.00 | 52 | 1011.5 |
| 20260505051404 | 46 | 5 | 0.0 | 0.0 | 0.00 | 0.00 | 0.00 | 52 | 1011.5 |
| 20260505050904 | 46 | 5 | 0.0 | 0.0 | 0.00 | 0.00 | 0.00 | 52 | 1011.5 |
| 20260505050404 | 47 | 5 | 0.0 | 0.0 | 0.00 | 0.00 | 0.00 | 51 | 1011.5 |
| 20260505041418 | 47 | 5 | 0.0 | 0.0 | 0.00 | 0.00 | 0.00 | 48 | 1011.2 |
| 20260505040904 | 47 | 5 | 0.0 | 0.0 | 0.00 | 0.00 | 0.00 | 47 | 1011.2 |
| 20260505040404 | 48 | 5 | 0.0 | 0.0 | 0.00 | 0.00 | 0.00 | 47 | 1011.1 |
| 20260505034904 | 49 | 5 | 0.0 | 0.0 | 0.00 | 0.00 | 0.00 | 45 | 1010.9 |
| 20260505034403 | 49 | 5 | 0.0 | 0.0 | 0.00 | 0.00 | 0.00 | 45 | 1010.7 |
| 20260505033903 | 49 | 5 | 0.0 | 0.0 | 0.00 | 0.00 | 0.00 | 42 | 1010.6 |
| 20260505033404 | 50 | 5 | 0.0 | 0.0 | 0.00 | 0.00 | 0.00 | 43 | 1010.6 |
| 20260505032904 | 50 | 5 | 0.0 | 0.0 | 0.00 | 0.00 | 0.00 | 41 | 1010.4 |
| 20260505032404 | 51 | 5 | 0.0 | 0.0 | 0.00 | 0.00 | 0.00 | 41 | 1010.5 |
| 20260505031904 | 52 | 5 | 0.0 | 0.0 | 0.00 | 0.00 | 0.00 | 37 | 1010.4 |
| 20260505031404 | 52 | 5 | 0.0 | 0.0 | 0.00 | 0.00 | 0.00 | 36 | 1010.3 |
| 20260505030904 | 53 | 5 | 0.0 | 0.0 | 0.00 | 0.00 | 0.00 | 36 | 1010.2 |
| 20260505030407 | 54 | 5 | 0.0 | 0.0 | 0.00 | 0.00 | 0.00 | 35 | 1010.1 |
| 20260505025904 | 54 | 5 | 0.0 | 0.0 | 0.00 | 0.00 | 0.00 | 34 | 1010.1 |
| 20260505025404 | 55 | 5 | 0.0 | 0.0 | 0.00 | 0.00 | 0.00 | 33 | 1010.0 |
| 20260505024904 | 56 | 5 | 0.0 | 0.0 | 0.00 | 0.00 | 0.00 | 34 | 1010.0 |
| 20260505024404 | 56 | 5 | 0.0 | 0.0 | 0.00 | 0.00 | 0.00 | 32 | 1010.0 |
| 20260505023404 | 57 | 5 | 0.0 | 0.0 | 0.00 | 0.00 | 0.00 | 32 | 1010.0 |
| 20260505022905 | 57 | 5 | 0.0 | 0.0 | 0.00 | 0.00 | 0.00 | 30 | 1009.8 |
| 20260505022404 | 57 | 5 | 0.0 | 0.0 | 0.00 | 0.00 | 0.00 | 30 | 1009.8 |
| 20260505021904 | 58 | 5 | 0.0 | 0.0 | 0.00 | 0.00 | 0.00 | 29 | 1009.8 |
| 20260505021404 | 58 | 5 | 0.0 | 0.0 | 0.00 | 0.00 | 0.00 | 29 | 1009.8 |
| 20260505020904 | 58 | 5 | 0.0 | 0.0 | 0.00 | 0.00 | 0.00 | 29 | 1009.9 |
| 20260505020405 | 58 | 5 | 0.0 | 0.0 | 0.00 | 0.00 | 0.00 | 29 | 1009.9 |
| 20260505015903 | 58 | 5 | 0.0 | 0.0 | 0.00 | 0.00 | 0.00 | 27 | 1009.9 |
| 20260505015404 | 59 | 5 | 0.0 | 0.0 | 0.00 | 0.00 | 0.00 | 27 | 1009.8 |
| 20260505014904 | 59 | 5 | 0.0 | 0.0 | 0.00 | 0.00 | 0.00 | 27 | 1009.9 |
| 20260505014404 | 59 | 5 | 0.0 | 0.0 | 0.00 | 0.00 | 0.00 | 28 | 1009.8 |
| 20260505013904 | 59 | 5 | 0.0 | 5.0 | 0.00 | 0.00 | 0.00 | 26 | 1009.8 |
| 20260505013404 | 59 | 71 | 0.0 | 2.0 | 0.00 | 0.00 | 0.00 | 26 | 1009.8 |
| 20260505012904 | 60 | 222 | 1.0 | 3.0 | 0.00 | 0.00 | 0.00 | 26 | 1009.9 |
| 20260505012405 | 60 | 244 | 0.0 | 12.0 | 0.00 | 0.00 | 0.00 | 27 | 1010.0 |
| 20260505011905 | 60 | 223 | 1.0 | 10.0 | 0.00 | 0.00 | 0.00 | 25 | 1010.1 |
| 20260505011404 | 60 | 320 | 0.0 | 5.0 | 0.00 | 0.00 | 0.00 | 24 | 1010.0 |
| 20260505010404 | 61 | 344 | 4.0 | 15.0 | 0.00 | 0.00 | 0.00 | 22 | 1010.1 |
| 20260505005904 | 62 | 228 | 4.0 | 20.0 | 0.00 | 0.00 | 0.00 | 19 | 1010.0 |
| 20260505005404 | 61 | 227 | 1.0 | 10.0 | 0.00 | 0.00 | 0.00 | 17 | 1009.7 |
| 20260505004904 | 61 | 250 | 4.0 | 10.0 | 0.00 | 0.00 | 0.00 | 18 | 1009.7 |
| 20260505004407 | 61 | 229 | 6.0 | 12.0 | 0.00 | 0.00 | 0.00 | 19 | 1009.7 |
| 20260505003404 | 62 | 267 | 4.0 | 13.0 | 0.00 | 0.00 | 0.00 | 19 | 1009.7 |
| 20260505002903 | 62 | 231 | 10.0 | 17.0 | 0.00 | 0.00 | 0.00 | 19 | 1009.7 |
| 20260505002404 | 62 | 233 | 4.0 | 12.0 | 0.00 | 0.00 | 0.00 | 19 | 1009.6 |
| 20260505001904 | 63 | 233 | 3.0 | 9.0 | 0.00 | 0.00 | 0.00 | 19 | 1009.6 |
| 20260505000904 | 64 | 247 | 9.0 | 16.0 | 0.00 | 0.00 | 0.00 | 16 | 1009.6 |
| 20260505000405 | 65 | 256 | 1.0 | 14.0 | 0.00 | 0.00 | 0.00 | 14 | 1009.5 |
| 20260504235903 | 66 | 236 | 3.0 | 10.0 | 0.00 | 0.00 | 0.00 | 15 | 1009.4 |
| 20260504235404 | 66 | 243 | 0.0 | 0.0 | 0.00 | 0.00 | 0.00 | 14 | 1009.4 |
| 20260504233904 | 66 | 38 | 3.0 | 8.0 | 0.00 | 0.00 | 0.00 | 13 | 1009.5 |
| 20260504233404 | 65 | 46 | 0.0 | 2.0 | 0.00 | 0.00 | 0.00 | 15 | 1009.4 |
| 20260504232907 | 65 | 49 | 0.0 | 5.0 | 0.00 | 0.00 | 0.00 | 15 | 1009.3 |
| 20260504231404 | 66 | 244 | 3.0 | 9.0 | 0.00 | 0.00 | 0.00 | 13 | 1009.2 |
| 20260504230904 | 65 | 223 | 0.0 | 0.0 | 0.00 | 0.00 | 0.00 | 14 | 1009.3 |
| 20260504230404 | 65 | 222 | 0.0 | 3.0 | 0.00 | 0.00 | 0.00 | 14 | 1009.4 |
| 20260504225904 | 64 | 236 | 0.0 | 3.0 | 0.00 | 0.00 | 0.00 | 16 | 1009.5 |
| 20260504225404 | 63 | 28 | 0.0 | 0.0 | 0.00 | 0.00 | 0.00 | 17 | 1009.6 |
| 20260504224404 | 63 | 40 | 1.0 | 9.0 | 0.00 | 0.00 | 0.00 | 16 | 1009.6 |
| 20260504223904 | 64 | 104 | 4.0 | 13.0 | 0.00 | 0.00 | 0.00 | 16 | 1009.7 |
| 20260504222903 | 64 | 41 | 1.0 | 6.0 | 0.00 | 0.00 | 0.00 | 15 | 1009.6 |
| 20260504222404 | 64 | 36 | 1.0 | 2.0 | 0.00 | 0.00 | 0.00 | 14 | 1009.6 |
| 20260504221904 | 64 | 42 | 3.0 | 10.0 | 0.00 | 0.00 | 0.00 | 14 | 1009.6 |
| 20260504220904 | 64 | 3 | 3.0 | 13.0 | 0.00 | 0.00 | 0.00 | 17 | 1009.9 |
| 20260504220404 | 63 | 48 | 2.0 | 8.0 | 0.00 | 0.00 | 0.00 | 18 | 1009.9 |
| 20260504215404 | 62 | 33 | 1.0 | 8.0 | 0.00 | 0.00 | 0.00 | 18 | 1010.3 |
| 20260504214904 | 62 | 34 | 0.0 | 10.0 | 0.00 | 0.00 | 0.00 | 18 | 1010.3 |
| 20260504214404 | 63 | 7 | 2.0 | 16.0 | 0.00 | 0.00 | 0.00 | 18 | 1010.3 |
| 20260504213403 | 63 | 42 | 3.0 | 6.0 | 0.00 | 0.00 | 0.00 | 16 | 1010.1 |
| 20260504212904 | 63 | 31 | 1.0 | 5.0 | 0.00 | 0.00 | 0.00 | 17 | 1010.2 |
| 20260504211904 | 62 | 58 | 0.0 | 3.0 | 0.00 | 0.00 | 0.00 | 19 | 1010.4 |
| 20260504211404 | 62 | 58 | 2.0 | 10.0 | 0.00 | 0.00 | 0.00 | 18 | 1010.5 |
| 20260504210904 | 62 | 44 | 2.0 | 7.0 | 0.00 | 0.00 | 0.00 | 19 | 1010.6 |
| 20260504210406 | 62 | 42 | 2.0 | 12.0 | 0.00 | 0.00 | 0.00 | 19 | 1010.6 |
| 20260504205404 | 62 | 34 | 3.0 | 25.0 | 0.00 | 0.00 | 0.00 | 19 | 1010.7 |
| 20260504204904 | 63 | 45 | 5.0 | 14.0 | 0.00 | 0.00 | 0.00 | 18 | 1010.6 |
| 20260504203403 | 68 | 228 | 3.0 | 12.0 | 0.00 | 0.00 | 0.00 | 13 | 1010.0 |
| 20260504202904 | 67 | 194 | 3.0 | 10.0 | 0.00 | 0.00 | 0.00 | 15 | 1009.9 |
| 20260504202404 | 65 | 220 | 0.0 | 5.0 | 0.00 | 0.00 | 0.00 | 16 | 1010.0 |
| 20260504201404 | 64 | 48 | 0.0 | 12.0 | 0.00 | 0.00 | 0.00 | 15 | 1010.1 |
| 20260504195904 | 65 | 44 | 1.0 | 5.0 | 0.00 | 0.00 | 0.00 | 14 | 1010.2 |
| 20260504195405 | 65 | 40 | 2.0 | 15.0 | 0.00 | 0.00 | 0.00 | 16 | 1010.3 |
| 20260504194904 | 65 | 42 | 1.0 | 9.0 | 0.00 | 0.00 | 0.00 | 16 | 1010.2 |
| 20260504194405 | 65 | 36 | 1.0 | 13.0 | 0.00 | 0.00 | 0.00 | 15 | 1010.3 |
| 20260504193904 | 66 | 44 | 3.0 | 12.0 | 0.00 | 0.00 | 0.00 | 15 | 1010.3 |
| 20260504193404 | 67 | 33 | 1.0 | 10.0 | 0.00 | 0.00 | 0.00 | 15 | 1010.3 |
| 20260504192904 | 67 | 26 | 1.0 | 12.0 | 0.00 | 0.00 | 0.00 | 14 | 1010.4 |
| 20260504192404 | 67 | 216 | 5.0 | 13.0 | 0.00 | 0.00 | 0.00 | 14 | 1010.5 |
| 20260504191904 | 67 | 198 | 4.0 | 13.0 | 0.00 | 0.00 | 0.00 | 13 | 1010.5 |
| 20260504191404 | 67 | 227 | 1.0 | 6.0 | 0.00 | 0.00 | 0.00 | 15 | 1010.5 |
| 20260504190904 | 67 | 210 | 0.0 | 0.0 | 0.00 | 0.00 | 0.00 | 15 | 1010.6 |
| 20260504190404 | 66 | 248 | 0.0 | 0.0 | 0.00 | 0.00 | 0.00 | 15 | 1010.6 |
| 20260504185904 | 66 | 249 | 0.0 | 0.0 | 0.00 | 0.00 | 0.00 | 15 | 1010.7 |
| 20260504185404 | 66 | 249 | 0.0 | 0.0 | 0.00 | 0.00 | 0.00 | 14 | 1010.8 |
| 20260504184904 | 67 | 247 | 0.0 | 2.0 | 0.00 | 0.00 | 0.00 | 14 | 1010.9 |
| 20260504184404 | 67 | 226 | 0.0 | 2.0 | 0.00 | 0.00 | 0.00 | 13 | 1010.9 |
| 20260504183403 | 69 | 201 | 0.0 | 3.0 | 0.00 | 0.00 | 0.00 | 13 | 1011.0 |
| 20260504182904 | 69 | 214 | 5.0 | 10.0 | 0.00 | 0.00 | 0.00 | 12 | 1011.0 |
| 20260504181904 | 68 | 155 | 1.0 | 5.0 | 0.00 | 0.00 | 0.00 | 15 | 1011.0 |
| 20260504180904 | 66 | 105 | 0.0 | 0.0 | 0.00 | 0.00 | 0.00 | 19 | 1011.3 |
| 20260504180404 | 65 | 105 | 1.0 | 3.0 | 0.00 | 0.00 | 0.00 | 16 | 1011.4 |
| 20260504175404 | 65 | 312 | 0.0 | 0.0 | 0.00 | 0.00 | 0.00 | 17 | 1011.5 |
| 20260504174905 | 64 | 312 | 0.0 | 3.0 | 0.00 | 0.00 | 0.00 | 16 | 1011.6 |
| 20260504174404 | 64 | 258 | 0.0 | 2.0 | 0.00 | 0.00 | 0.00 | 19 | 1011.6 |
| 20260504173904 | 64 | 241 | 0.0 | 3.0 | 0.00 | 0.00 | 0.00 | 21 | 1011.7 |
| 20260504173404 | 63 | 252 | 0.0 | 3.0 | 0.00 | 0.00 | 0.00 | 20 | 1011.8 |
| 20260504172904 | 63 | 355 | 0.0 | 2.0 | 0.00 | 0.00 | 0.00 | 20 | 1011.8 |
| 20260504172405 | 62 | 355 | 0.0 | 3.0 | 0.00 | 0.00 | 0.00 | 21 | 1011.9 |
| 20260504171903 | 62 | 27 | 0.0 | 3.0 | 0.00 | 0.00 | 0.00 | 22 | 1012.0 |
| 20260504171403 | 61 | 31 | 0.0 | 0.0 | 0.00 | 0.00 | 0.00 | 21 | 1012.0 |
| 20260504170907 | 60 | 31 | 0.0 | 2.0 | 0.00 | 0.00 | 0.00 | 23 | 1012.1 |
| 20260504170404 | 60 | 31 | 0.0 | 1.0 | 0.00 | 0.00 | 0.00 | 22 | 1012.1 |
| 20260504160404 | 54 | 63 | 0.0 | 0.0 | 0.00 | 0.00 | 0.00 | 31 | 1012.5 |
| 20260504150904 | 44 | 63 | 0.0 | 0.0 | 0.00 | 0.00 | 0.00 | 44 | 1013.4 |
| 20260504140904 | 36 | 98 | 0.0 | 0.0 | 0.00 | 0.00 | 0.00 | 62 | 1014.0 |
| 20260504140404 | 35 | 98 | 1.0 | 2.0 | 0.00 | 0.00 | 0.00 | 63 | 1014.1 |
| 20260504130404 | 30 | 190 | 0.0 | 0.0 | 0.00 | 0.00 | 0.00 | 69 | 1013.9 |
| 20260504110404 | 30 | 190 | 0.0 | 0.0 | 0.00 | 0.00 | 0.00 | 66 | 1013.7 |
| 20260504100404 | 31 | 190 | 0.0 | 0.0 | 0.00 | 0.00 | 0.00 | 64 | 1013.7 |
| 20260504081904 | 34 | 190 | 0.0 | 0.0 | 0.00 | 0.00 | 0.00 | 57 | 1013.7 |
| 20260504081405 | 34 | 190 | 0.0 | 0.0 | 0.00 | 0.00 | 0.00 | 57 | 1013.7 |
| 20260504080904 | 34 | 190 | 0.0 | 0.0 | 0.00 | 0.00 | 0.00 | 56 | 1013.8 |
| 20260504080404 | 34 | 190 | 0.0 | 0.0 | 0.00 | 0.00 | 0.00 | 56 | 1013.7 |